Regional Weather Roundup
Issued by NWS

Home | Current Version | Previous Version | Graphics & Text | Print | Product List | Glossary On
Versions: 1 2 3 4 5 6 7 8 9 10 11 12 13 14 15 16 17 18 19 20 21 22 23 24 25 26 27 28 29 30 31 32 33 34 35 36 37 38 39 40 41 42 43 44 45 46 47 48 49 50
000
ASUS43 KTOP 192008
RWRKS

WEATHER ROUNDUP FOR KANSAS
NATIONAL WEATHER SERVICE GOODLAND KS
300 PM CDT SAT AUG 19 2017

NOTE:  "FAIR" INDICATES FEW OR NO CLOUDS BELOW 12,000 FEET WITH NO
SIGNIFICANT WEATHER AND/OR OBSTRUCTIONS TO VISIBILITY.

KSZ001>006-013>018-027>032-041>047-192100-
NORTHWEST KANSAS

CITY           SKY/WX    TMP DP  RH WIND       PRES   REMARKS
GOODLAND       SUNNY     91  60  35 S20G26    29.94F
HAYS           SUNNY     97  65  34 S14       29.91F HX  99
HILL CITY      SUNNY    100  58  24 S14G22    29.91F HX  99
RUSSELL        SUNNY     96  61  31 S12G17    29.91F HX  96
$$

KSZ061>065-074>080-084>089-192100-
SOUTHWEST KANSAS

CITY           SKY/WX    TMP DP  RH WIND       PRES   REMARKS
DODGE CITY     SUNNY     98  60  28 S17G24    29.96F HX  98
ELKHART          N/A     91  64  40 S12         N/A
GARDEN CITY    SUNNY     94  63  35 S17G24    29.97F HX  95
GREAT BEND     SUNNY     95  67  39 SE12      29.92F HX  99
LIBERAL        SUNNY     93  65  39 S15       30.00F HX  95
PRATT          PTSUNNY   97  61  30 S13       29.93F HX  98
$$

KSZ066>073-081>083-090>101-192100-
SOUTHEAST KANSAS

CITY           SKY/WX    TMP DP  RH WIND       PRES   REMARKS
CHANUTE        SUNNY     94  75  54 S9        29.94F HX 105
COFFEYVILLE    MOSUNNY   93  77  59 SE3       29.92F HX 107
HUTCHINSON     SUNNY     96  64  34 VRB3      29.91F HX  98
MEDICINE LODGE   N/A     96  69  41 S6        29.91F HX 102
NEWTON         MOSUNNY   93  74  53 SE9       29.93F HX 103
PARSONS        MOSUNNY   94  75  54 S7        29.95F HX 105
WICHITA INTL   MOSUNNY   97  73  45 SE5       29.90F HX 107
WICHITA JABRA  MOSUNNY   94  75  54 S8        29.91F HX 105
WICHITA MCCONL SUNNY     96  73  48 S8        29.92F HX 105
WINFIELD       SUNNY     93  75  55 S9        29.93F HX 104
$$

KSZ007>012-019>026-033>040-048>060-102>105-192100-
NORTHEAST KANSAS

CITY           SKY/WX    TMP DP  RH WIND       PRES   REMARKS
CONCORDIA      SUNNY     92  69  47 SE10      29.91F HX  97
EMPORIA        CLOUDY    91  75  59 E14G22    29.93F HX 101
LAWRENCE       SUNNY     90  68  48 SE6       29.94F
MANHATTAN      SUNNY     92  72  51 S8        29.92F HX  99
MARYSVILLE     SUNNY     95  57  28 S10G16    29.92F
OLATHE IND     SUNNY     91  70  49 VRB3      29.96F HX  96
OLATHE EXE     SUNNY     88  70  55 S5        29.95F
SALINA         SUNNY    100  57  23 S9        29.90F HX  99
TOPEKA BILLARD SUNNY     93  71  48 E6        29.93F HX 100
TOPEKA FORBES  SUNNY     92  71  50 E10       29.94F HX  98
$$




USA.gov is the U.S. government's official web portal to all federal, state and local government web resources and services.